[Iaude] MPEC O116: 2024 LD5 [a=2.32,e=0.44,i=3.4,H=21.79]
    mpec at cfa.harvard.edu 
    mpec at cfa.harvard.edu
       
    Wed Jul 31 11:34:22 EDT 2024
    
    
  
M.P.E.C. 2024-O116                                Issued 2024 July 31, 15:33 UT
     The Minor Planet Electronic Circulars contain information on unusual
         minor planets, routine data on comets and natural satellites,
         and occasional editorial announcements.  They are published
    on behalf of Division F of the International Astronomical Union by the
          Minor Planet Center, Smithsonian Astrophysical Observatory,
                          Cambridge, MA 02138, U.S.A.
			  
             Prepared using the Tamkin Foundation Computer Network
                              MPC at CFA.HARVARD.EDU
            URL https://www.minorplanetcenter.net/    ISSN 1523-6714
                                    2024 LD5                                    
                           Revision to MPEC 2024-L148                           
Additional Observations:
     K24L05D  C2017 09 14.41468 23 55 15.250-01 00 07.68         21.8 wLEO116F51
     K24L05D  C2017 09 14.42666 23 55 14.382-01 00 08.66         21.5 wLEO116F51
     K24L05D  C2017 09 14.43859 23 55 13.521-01 00 09.66         22.0 wLEO116F51
     K24L05D  C2017 09 17.38605 23 52 00.523-01 04 19.78         21.9 wLEO116F51
     K24L05D  C2017 09 17.40947 23 51 58.871-01 04 21.93         21.9 wLEO116F51
     K24L05D  C2017 09 17.42122 23 51 58.041-01 04 23.32         22.0 wLEO116F51
Observer details:
F51 Pan-STARRS 1, Haleakala.  Observers J. Bulger, T. Lowe, A. Schultz, M.
    Willman.  Measurers K. Chambers, S. Chastel, L. Denneau, H. Flewelling, M.
    Huber, E. Lilly, E. Magnier, R. Wainscoat, C. Waters, R. Weryk.  1.8-m
    Ritchey-Chretien + CCD.
First and last observations above in comparison with prediction:
Residuals in seconds of arc (or two decimals in degrees), reference and Delta-T
170914 F51 0.39+ 0.20+    170917 F51 0.39+ 0.20+    MPO840762   +0.00 days
Orbital elements:
2024 LD5                                                 Earth MOID = 0.2824 AU
Epoch 2024 Oct. 17.0 TT = JDT 2460600.5                 MPC                     
M  29.77200              (2000.0)            P               Q                  
n   0.27917942     Peri.  290.41924     +0.29602907     +0.95517310             
a   2.3185357      Node   356.79441     -0.85261206     +0.26266512             
e   0.4433197      Incl.    3.42092     -0.43060361     +0.13657006             
P   3.53           H   21.79          G   0.15           U   0                  
Residuals in seconds of arc
170914 F51  0.1+  0.1-    240607 J04  0.8+  0.5+    240706 F52  0.0   0.1+
170914 F51  0.0   0.1-    240607 J04  0.0   0.5-    240706 F52  0.1-  0.0
170914 F51  0.1+  0.1-    240607 291  0.0   0.2+    240706 F52  0.1-  0.0
170917 F51  0.1+  0.3+    240607 291  0.1+  0.1-    240713 474  0.1-  0.2-
170917 F51  0.1-  0.1+    240607 291  0.1+  0.1+    240713 474  0.0   0.2-
170917 F51  0.1-  0.2-    240615 T12  0.1+  0.0     240713 474  0.1-  0.2+
240606 F52  0.1-  0.2-    240615 T12  0.0   0.0     240727 F52  0.0   0.0
240606 F52  0.0   0.1+    240615 T12  0.1-  0.0     240727 F52  0.0   0.0
240606 F52  0.0   0.2+    240617 807  0.4-  1.0-    240727 F52  0.1+  0.1+
240606 F51  0.0   0.0     240617 807  0.5+  0.3-
240606 F51  0.1+  0.1-    240706 F52  0.0   0.1+
Ephemeris:
2024 LD5                 a,e,i = 2.32, 0.44, 3                   q = 1.2907
Date    TT    R. A. (2000) Decl.     Delta      r    Elong.  Phase     V
2024 07 01    21 04 24.1 -30 46 50   0.3128  1.2907   147.2    25.3    21.0
...
2024 07 16    21 23 37.4 -28 36 31   0.3020  1.2979   155.9    18.6    20.7
...
2024 07 24    21 28 53.0 -27 11 06   0.3054  1.3089   161.4    14.4    20.6
...
2024 07 30    21 30 58.5 -26 01 53   0.3125  1.3201   165.6    11.1    20.6
2024 07 31    21 31 11.9 -25 50 01   0.3141  1.3223   166.2    10.5    20.5
2024 08 01    21 31 23.5 -25 38 04   0.3158  1.3245   166.9    10.0    20.5
...
2024 08 07    21 32 03.5 -24 24 55   0.3284  1.3391   170.3     7.3    20.5
...
2024 08 15    21 32 17.8 -22 44 50   0.3524  1.3621   171.2     6.5    20.7
...
2024 08 30    21 33 48.3 -19 38 46   0.4200  1.4151   162.0    12.8    21.4
A. U. Tomatic                (C) Copyright 2024 MPC           M.P.E.C. 2024-O116
    
    
More information about the Iaude
mailing list